DMSP 5D-2 F13 DEB

基本信息
目录编号:
42258
目录名称:
DMSP 5D-2 F13 DEB
国际标识:
1995-015FY
轨道中心:
EARTH
物体状态:
在轨
发射日期:
1995-03-24 UTC
轨道信息
数据来源: 国际轨道数据
星历时间: 2026-09-08T13:42:54+0800
半长轴: 7253.242km
偏心率: 0.0127304
轨道倾角: 98.736°
近地点辐角: 181.915°
升交点赤经: 55.619°
平近点角: 178.155°
近地点: 782.768km
远地点: 967.442km
周期: 102.461分钟
每日圈数: 14.05415
详细信息
发射场:
AFWTR
轨道高度:
LEO
数据来源:
AOE Integration Group
参考系:
TEME
时间系统:
UTC
历元类型:
SGP4
2D轨道图
3D轨道图
轨道高度分析图
轨道倾角分析图
轨道综合分析图
查看轨道综合分析图